Tracking 27402 objects as of 3-Jun-2023
HD Live streaming from Space Station
objects crossing your sky now

STARLINK-2624

Track STARLINK-2624 now!
10-day predictions
STARLINK-2624 is classified as:


NORAD ID: 48358
Int'l Code: 2021-038F
Perigee: 553.4 km
Apogee: 555.5 km
Inclination: 53.1 °
Period: 95.6 minutes
Semi major axis: 6925 km
RCS: Unknown
Launch date: May 4, 2021
Source: United States (US)
Launch site: AIR FORCE EASTERN TEST RANGE (AFETR)
Your satellite tracking list
Your tracking list is empty




NASA's NSSDC Master Catalog

Two Line Element Set (TLE):
1 48358U 21038F   23153.58960447  .00021909  00000-0  14860-2 0  9991
2 48358  53.0535 220.6228 0001510  56.1840 303.9293 15.06378570114629
Source of the keplerian elements: AFSPC